Location: Newark
(53.7833°N, 9.4833°E)
Time: 09:03:02
(UTC+00:00)

Envisat - Pass Details

Date: 19 December 2019
Orbit: 764 x 766 km, 98.1° (Epoch: 28 January)

Event Time Altitude Azimuth Distance (km) Brightness Sun altitude
Rises 05:42:32 0° 19° (NNE) 3,248 6.3 -15.3°
Reaches altitude 10° 05:45:00 10° 26° (NNE) 2,317 5.6 -15.0°
Maximum altitude 05:49:49 41° 97° (E) 1,107 4.4 -14.3°
Drops below altitude 10° 05:54:35 10° 167° (SSE) 2,299 5.9 -13.7°
Sets 05:57:01 0° 175° (S) 3,220 6.6 -13.3°
